Location: Unspecified
(48.2082°N, 0.0000°E)
Time: 09:14:19
(UTC+00:00)

A-11 Canister half - Visible Passes

Search period start: 14 August 2020 00:00
Search period end: 24 August 2020 00:00
Orbit: 1513 x 1687 km, 47.2° (Epoch: 13 August)

Date Brightness Start Highest point End Pass type
(mag) Time Alt. Az. Time Alt. Az. Time Alt. Az.
14 Aug 9.1 21:29:21 10° WNW 21:39:06 66° SSW 21:44:57 29° SE visible
14 Aug 9.9 23:34:42 10° W 23:42:57 30° SW 23:43:06 30° SW visible
15 Aug 9.2 21:06:26 10° WNW 21:16:10 68° SSW 21:22:47 25° SE visible
15 Aug 9.8 23:11:42 10° WNW 23:20:06 32° SW 23:20:57 32° SW visible
16 Aug 9.2 20:43:30 10° WNW 20:53:14 70° SSW 21:00:41 21° SE visible
16 Aug 9.8 22:48:42 10° WNW 22:57:14 34° SW 22:58:50 32° SSW visible
17 Aug 9.2 20:20:35 10° WNW 20:30:19 72° SSW 20:38:37 17° ESE visible
17 Aug 9.8 22:25:43 10° WNW 22:34:23 36° SW 22:36:48 32° SSW visible
18 Aug 9.2 19:57:40 10° W 20:07:22 73° SSW 20:16:38 13° ESE visible
18 Aug 9.8 22:02:44 10° WNW 22:11:30 37° SW 22:14:48 30° S visible
19 Aug 9.2 19:34:45 10° W 19:44:26 75° SSW 19:54:28 10° ESE visible
19 Aug 9.8 21:39:47 10° WNW 21:48:38 39° SW 21:52:50 28° S visible
19 Aug 10.8 23:49:09 10° WSW 23:51:01 11° WSW 23:51:01 11° WSW visible
20 Aug 9.7 21:16:49 10° WNW 21:25:45 41° SW 21:30:56 25° SSE visible
20 Aug 10.8 23:25:15 10° WSW 23:28:39 12° WSW 23:29:07 12° SW visible
21 Aug 9.7 20:53:52 10° WNW 21:02:53 43° SW 21:09:05 21° SSE visible
21 Aug 10.7 23:01:40 10° W 23:05:51 13° WSW 23:07:16 13° SW visible
22 Aug 9.7 20:30:56 10° WNW 20:40:00 45° SW 20:47:17 17° SSE visible
22 Aug 10.7 22:38:16 10° W 22:43:03 15° SW 22:45:28 13° SW visible
23 Aug 9.7 20:07:59 10° WNW 20:17:07 47° SW 20:25:32 13° SSE visible
23 Aug 10.7 22:14:57 10° W 22:20:14 16° SW 22:23:44 13° SSW visible
